sat.trackr.live / text

‹ back to catalog

STARLINK-32887

NORAD 62964 · 2025-029S

PAYLOAD ACTIVE UNKNOWN

§ Identity

Operator
Country
US
Launch date
2025-02-11
Launch site
AFWTR
Launch vehicle
Mass (kg)
RCS (m²)

Purposes: comms

External: N2YO · Heavens-Above · Gunter

§ Orbital elements

Epoch: 2026-05-24T17:43:41.289312Z

Period
94.11 min
Inclination
53.1561°
Eccentricity
0.0001341
Mean motion
15.30185961 rev/d
Perigee alt
474.3 km
Apogee alt
476.2 km
Semi-major
6,853.4 km
B*
4.2122e-4
RAAN
236.9024°
Arg perigee
85.5174°
Mean anomaly
274.5980°
Rev number
7,299

§ Raw data

STARLINK-328871 62964U 25029S   26144.73867233  .00012131  00000+0  42122-3 0  99922 62964  53.1561 236.9024 0001341  85.5174 274.5980 15.30185961 72996

JSON: /api/v1/satellites/62964 · /tle

For live sub-satellite position, see the globe view (requires WebGL).

§ Visibility from observer

Set your observer location to see the next 7 days of passes ≥ 10°. The values pass through the URL so the page stays shareable.

No JS? Fill the form by hand. The geolocation button needs JavaScript.